SCP
0 0 0 0 0 0 0 0 0 0 0 0 0 0 0 0 0 0 0 0 0 0 0 0 0 0 0 0 1 0 0 0 0 1 1 1 1 2 2 2 2 2 2 2
0 0 0 0 0 0 0 0 0 0 0 0 0 0 0 0 0 0 0 0 0 0 0 0 0 0 0 0 0 0 0 0 0 1 1 1 1 1 2 2 2 2 2 2
0 0 0 0 0 0 0 0 0 0 0 0 0 0 0 0 0 0 0 0 0 0 0 0 0 0 0 0 0 0 0 0 0 0 1 1 1 1 1 1 2 2 2 3
0 0 0 0 0 0 0 0 0 0 0 0 0 0 0 0 0 0 0 0 0 0 0 0 0 0 0 0 0 0 0 0 0 0 1 1 1 1 1 1 1 2 2 3
0 0 0 0 0 0 0 0 0 0 0 0 0 0 0 0 0 0 0 0 0 0 0 0 0 0 0 0 0 0 0 0 0 1 1 1 1 1 1 1 1 2 2 2
0 0 0 0 0 0 0 0 0 0 0 0 0 0 0 0 0 0 0 0 0 0 0 0 0 0 0 0 0 0 0 0 1 1 1 1 1 1 1 1 1 1 1 1
0 0 0 0 0 0 0 0 0 0 0 0 0 0 0 0 0 0 0 0 0 0 0 0 0 0 0 0 0 0 0 0 0 0 0 0 1 1 1 1 1 1 1 1
0 0 0 0 0 0 0 0 0 0 0 0 0 0 0 0 0 0 0 0 0 0 0 0 0 0 0 0 0 0 0 0 0 0 0 0 0 1 1 1 1 1 1 1
0 0 0 0 0 0 0 0 0 0 0 0 0 0 0 0 0 0 0 0 0 0 0 0 0 0 0 0 0 0 0 0 0 0 0 0 0 1 1 1 1 1 1 1
0 0 0 0 0 0 0 0 0 0 0 0 0 0 0 0 0 0 0 0 0 0 0 0 0 0 0 0 0 0 0 0 0 0 0 0 0 1 1 1 1 1 0 1
0 0 0 0 0 0 0 0 0 0 0 0 0 0 0 0 0 0 0 0 0 0 0 0 0 0 0 0 0 0 0 0 0 0 0 0 0 0 0 0 0 0 0 0
0 0 0 0 0 0 0 0 0 0 0 0 0 0 0 0 0 0 0 0 0 0 0 0 0 0 0 0 0 0 0 0 0 0 0 0 0 0 0 0 0 0 0 0
0 0 0 0 0 0 0 0 0 0 0 0 0 0 0 0 0 0 0 0 0 0 0 0 0 0 0 0 0 0 0 0 0 0 0 0 0 0 0 0 0 0 0 0
0 0 0 0 0 0 0 0 0 0 0 0 0 0 0 0 0 0 0 0 0 0 0 0 0 0 0 0 0 0 0 0 0 0 0 0 0 0 0 0 0 0 0 0
0 0 0 0 0 0 0 0 0 0 0 0 0 0 0 0 0 0 0 0 0 0 0 0 0 0 0 0 0 0 0 0 0 0 0 0 0 0 0 0 0 0 0 0
0 0 0 0 0 0 0 0 0 0 0 0 0 0 0 0 0 0 0 0 0 0 0 0 0 0 0 0 0 0 0 0 0 0 0 0 0 0 0 0 0 0 0 0
0 0 0 0 0 0 0 0 0 0 0 0 0 0 0 0 0 0 0 0 0 0 0 0 0 0 0 0 0 0 0 0 0 0 0 0 0 0 0 0 0 0 0 0
0 0 0 0 0 0 0 0 0 0 0 0 0 0 0 0 0 0 0 0 0 0 0 0 0 0 0 0 0 0 0 0 0 0 0 0 0 0 0 0 0 0 0 0
0 0 0 0 0 0 0 0 0 0 0 0 0 0 0 0 0 0 0 0 0 0 0 0 0 0 0 0 0 0 0 0 0 0 0 0 0 0 0 0 0 0 0 0
0 0 0 0 0 0 0 0 0 0 0 0 0 0 0 0 0 0 0 0 0 0 0 0 0 0 0 0 0 0 0 0 0 0 0 0 0 0 0 0 0 0 0 0
0 0 0 0 0 0 0 0 0 0 0 0 0 0 0 0 0 0 0 0 0 0 0 0 0 0 0 0 0 0 0 0 0 0 0 0 0 0 0 0 0 0 0 0
0 0 0 0 0 0 0 0 0 0 0 0 0 0 0 0 0 0 0 0 0 0 0 0 0 0 0 0 0 0 0 0 0 0 0 0 0 0 0 0 0 0 0 0
0 0 0 0 0 0 0 0 0 0 0 0 0 0 0 0 0 0 0 0 0 0 0 0 0 0 0 0 0 0 0 0 0 0 0 0 0 0 0 0 0 0 0 0
0 0 0 0 0 0 0 0 0 0 0 0 0 0 0 0 0 0 0 0 0 0 0 0 0 0 0 0 0 0 0 0 0 0 0 0 0 0 0 0 0 0 0 0
0 0 0 0 0 0 0 0 0 0 0 0 0 0 0 0 0 0 0 0 0 0 0 0 0 0 0 0 0 0 0 0 0 0 0 0 0 0 0 0 0 0 0 0
0 0 0 0 0 0 0 0 0 0 0 0 0 0 0 0 0 0 0 0 0 0 0 0 0 0 0 0 0 0 0 0 0 0 0 0 0 0 0 0 0 0 0 0
Wind_Speed
7 10 7 5 4 3 3 4 3 3 5 9 11 10 8 10 12 13 12 12 12 12 11 10 11 11 10 9 9 8 8 8 6 4 3 3 4 4 4 5 6 6 6 6
9 7 5 4 6 6 4 4 3 3 5 7 8 8 5 7 10 10 10 11 12 14 13 13 12 11 10 9 9 8 8 8 6 4 3 3 3 3 4 5 6 7 7 6
9 3 5 5 7 6 3 3 1 1 4 5 4 4 6 5 6 9 10 9 10 13 14 14 13 11 11 10 10 9 9 9 8 6 4 3 2 2 2 4 5 6 7 7
7 5 5 6 6 5 2 2 1 1 3 2 3 0 5 7 8 12 13 12 12 12 12 12 12 12 11 10 9 8 8 8 8 7 4 4 3 3 3 3 3 4 5 7
4 3 6 6 4 4 3 3 1 2 4 4 7 3 4 6 9 14 14 13 12 12 12 13 12 12 11 9 8 8 8 7 8 7 6 4 3 2 2 2 2 3 3 5
4 3 4 3 3 3 2 3 5 6 6 5 5 2 4 5 9 13 13 13 13 13 13 12 12 10 9 8 7 7 7 7 7 7 6 5 4 3 2 1 2 2 2 2
5 6 6 4 6 7 8 6 5 6 6 2 3 2 2 5 7 9 12 13 12 11 12 13 13 12 11 10 9 8 7 7 7 7 6 6 6 5 3 2 0 2 2 2
3 5 6 6 3 3 4 5 5 2 1 1 3 2 4 5 6 7 8 10 11 12 12 12 12 11 11 10 9 8 7 7 7 6 6 6 6 4 4 4 2 2 1 1
5 1 2 4 4 3 3 4 2 6 3 2 2 3 4 5 8 9 11 12 13 13 13 13 12 11 11 10 9 9 8 7 7 7 6 6 7 6 5 5 4 3 3 2
6 4 3 4 6 7 4 3 5 5 3 1 2 3 4 9 12 12 12 12 13 12 12 12 12 11 10 9 8 8 7 7 7 7 7 6 6 6 6 5 6 5 4 3
4 5 4 5 6 5 5 5 6 5 3 4 1 3 3 6 8 9 11 10 10 10 11 10 10 10 10 9 9 9 9 8 8 8 7 7 7 6 6 6 6 5 5 4
3 6 3 1 1 1 4 3 3 4 2 2 2 4 5 4 6 7 9 9 9 8 8 8 9 9 9 9 9 9 9 9 8 7 7 7 7 7 7 7 6 6 6 5
5 6 4 4 4 4 4 3 3 5 5 2 2 5 4 4 6 6 7 9 8 8 8 7 8 8 8 8 9 9 9 9 8 8 8 8 8 8 8 8 7 7 6 6
6 6 4 3 3 1 2 2 2 4 4 2 3 4 6 6 7 8 8 8 7 7 6 7 7 8 7 7 8 8 8 8 8 8 9 9 9 8 8 8 8 8 7 7
6 5 3 3 2 2 1 1 2 2 5 5 4 4 6 6 5 6 6 7 7 7 7 7 7 7 7 7 7 7 8 8 8 8 9 8 8 8 8 8 8 8 9 9
5 5 2 2 1 1 1 2 2 2 3 3 2 4 6 4 3 4 6 6 6 7 7 7 6 6 6 6 6 6 7 7 7 7 8 7 7 8 8 8 8 8 8 8
3 5 3 0 1 3 5 6 6 4 4 5 5 5 3 2 3 4 4 5 5 6 5 6 5 5 4 4 4 5 5 5 6 7 7 7 7 7 7 7 8 8 8 8
7 5 4 2 1 3 6 3 6 5 5 6 5 4 4 4 3 4 3 3 5 5 5 5 4 4 3 3 4 4 5 5 6 6 7 7 6 6 6 7 7 7 6 7
4 7 4 3 1 7 5 4 7 6 5 7 7 5 3 1 2 4 3 2 3 3 3 3 3 2 2 3 3 3 5 5 5 6 6 6 6 6 6 7 6 6 5 7
5 5 6 4 1 5 6 4 5 5 5 6 8 7 4 4 1 4 4 3 4 4 3 3 3 2 2 2 2 3 4 4 5 4 4 5 5 6 6 6 5 5 5 6
2 3 4 4 4 9 5 5 7 4 8 5 9 8 7 7 6 4 4 3 3 3 3 3 3 2 2 2 2 2 3 3 2 3 4 5 5 5 5 5 5 5 5 6
7 5 5 5 4 9 5 9 9 10 3 6 8 7 7 6 4 3 2 2 3 3 3 3 3 3 3 2 2 2 1 1 2 4 5 5 6 5 5 5 5 5 5 6
7 9 8 10 9 5 8 8 6 6 6 7 7 7 7 5 4 2 1 1 2 3 3 2 2 3 3 2 1 1 0 2 3 4 5 4 5 5 5 5 5 5 5 5
4 4 4 5 8 5 7 4 4 6 7 7 7 7 7 6 5 3 2 1 2 3 3 2 2 2 3 3 1 0 1 3 4 4 3 3 4 4 4 4 4 4 5 5
7 7 4 6 6 3 6 9 8 6 6 6 6 7 7 7 5 4 3 2 1 2 2 2 1 1 2 3 2 1 2 4 4 3 2 2 2 2 3 3 3 3 3 3
7 10 10 9 8 8 7 9 10 9 8 9 9 7 5 6 6 4 3 2 1 1 2 2 2 1 2 2 2 1 2 4 4 3 2 1 1 1 1 1 2 2 3 5
Wind_Direction
29 52 37 5 24 79 94 94 85 70 96 80 87 78 47 30 31 24 15 8 2 353 345 347 347 345 341 341 340 338 343 340 337 331 309 265 237 232 221 212 208 207 199 195
50 36 356 22 35 55 74 87 68 65 90 102 105 79 44 34 30 18 6 358 353 345 345 346 344 342 338 333 332 331 335 332 328 312 290 264 253 239 226 213 203 205 196 190
90 6 3 55 44 46 54 97 92 145 78 85 119 66 14 2 10 11 7 354 349 343 340 338 337 334 333 331 331 329 329 330 325 317 303 294 269 253 230 214 204 199 192 187
76 17 34 55 42 32 351 347 298 197 119 62 2 125 358 334 342 359 356 352 346 340 337 335 333 330 328 324 323 324 326 327 327 326 322 312 287 271 258 241 212 191 190 186
72 29 41 40 6 3 303 338 35 103 118 71 23 61 333 337 350 346 343 343 341 337 334 333 330 324 321 322 324 324 324 329 331 333 333 325 312 293 280 252 193 185 182 179
52 27 48 359 347 13 342 57 61 53 70 57 347 32 348 344 332 330 334 337 337 335 334 332 330 328 325 328 332 329 330 332 337 343 346 347 341 333 320 275 198 175 159 157
29 13 2 13 12 8 34 64 41 23 34 29 334 56 328 307 320 321 325 329 332 334 336 337 339 341 338 340 340 341 342 340 345 351 356 357 357 358 358 339 180 146 141 152
81 7 357 12 25 345 31 84 118 140 154 312 4 16 288 295 314 319 325 330 338 342 341 340 340 340 340 342 344 347 351 351 354 358 1 4 8 11 15 20 41 71 93 118
125 106 348 28 25 55 57 58 120 118 107 66 357 333 315 333 339 341 342 344 343 341 341 342 344 345 342 343 348 351 356 0 1 3 7 15 17 20 25 30 38 47 54 73
124 114 349 337 31 34 83 102 73 82 107 62 345 344 316 324 328 334 337 338 336 339 344 347 347 347 345 348 352 359 3 4 6 9 14 21 19 21 24 32 37 38 41 51
98 108 6 29 36 351 20 50 76 82 98 126 16 303 262 284 304 316 320 326 328 337 343 345 347 349 349 358 4 8 9 13 14 14 16 19 20 21 25 29 28 32 38 43
103 105 74 0 332 73 94 81 114 117 95 106 134 276 282 289 298 305 312 320 326 330 335 338 341 347 356 5 7 10 13 17 15 14 19 22 20 22 26 27 25 28 35 37
120 100 84 357 349 11 52 56 87 106 106 108 128 280 302 326 320 318 319 323 326 329 336 340 345 350 356 3 7 12 15 15 14 19 25 27 25 26 28 27 27 31 36 37
101 80 125 150 214 215 52 57 114 108 116 150 217 265 306 320 320 321 323 324 327 334 340 346 346 349 358 4 7 10 13 13 17 23 28 29 24 24 27 30 32 33 36 40
89 86 76 83 92 104 100 116 135 131 162 168 218 244 269 282 292 303 314 326 338 345 347 350 349 348 356 3 5 8 10 11 15 22 26 23 21 26 30 33 34 35 36 38
75 107 88 47 40 54 306 222 169 159 170 192 230 263 255 269 291 310 322 333 337 338 342 346 350 352 355 359 360 5 7 5 15 24 22 18 24 29 29 29 32 36 36 35
86 115 108 238 341 8 282 222 194 199 197 180 206 238 246 267 291 301 311 323 324 327 332 339 343 343 342 349 358 3 359 7 22 25 21 19 24 30 25 29 34 33 31 34
119 102 108 113 69 271 249 216 174 184 215 202 215 232 221 230 266 286 284 300 314 323 330 333 333 336 340 351 3 6 14 20 25 24 21 18 23 29 27 33 32 26 26 31
121 126 116 121 206 281 281 191 168 174 245 207 201 217 217 204 5 320 295 300 291 300 306 305 309 309 330 355 4 21 23 22 26 23 20 17 23 31 32 32 26 20 27 32
70 94 111 130 195 253 253 191 152 110 270 217 183 193 181 126 85 274 292 315 318 327 325 326 332 342 354 357 28 37 24 27 22 17 21 24 32 40 38 32 27 22 29 29
111 77 126 162 229 262 241 147 120 148 243 195 174 178 169 179 203 235 295 318 335 339 341 352 2 356 332 347 52 42 26 24 19 37 40 35 36 45 41 37 30 27 29 29
173 164 185 160 206 259 185 147 180 210 198 160 168 172 177 201 223 243 267 325 351 353 353 360 2 346 340 8 61 44 16 37 74 67 56 45 37 40 40 42 35 30 30 33
193 187 183 188 211 231 185 192 201 167 163 173 171 178 175 181 199 200 198 338 340 348 350 350 351 348 354 8 59 52 287 127 105 83 68 57 51 43 38 43 39 33 31 32
241 170 169 242 257 233 215 224 192 179 176 173 168 167 167 175 185 183 188 277 325 335 341 343 3 12 356 352 17 14 156 139 121 104 87 71 63 50 40 39 37 39 32 29
216 166 190 248 265 255 224 206 194 182 163 152 156 168 173 171 179 184 194 230 279 311 323 338 352 343 333 343 4 28 133 139 129 122 115 96 79 69 49 42 35 34 27 26
192 176 176 217 214 190 219 197 174 165 171 169 163 168 176 175 181 179 193 215 234 283 313 338 346 342 336 352 2 14 137 149 146 147 155 155 146 120 66 29 8 7 19 32